Location: Godiavel Galaoual
(15.2485°N, 12.6604°W)
Time: 09:44:41
(UTC+00:00)

Hubble Space Telescope - Pass Details

Date: 18 May 2021
Orbit: 535 x 539 km, 28.5° (Epoch: 17 June)

Event Time Altitude Azimuth Distance (km) Brightness Sun altitude
Exits shadow 05:27:22 18° 269° (W) 1,358 2.3 -12.8°
Maximum altitude 05:30:10 46° 337° (NNW) 716 1.4 -12.2°
Drops below altitude 10° 05:34:07 10° 52° (NE) 1,773 4.8 -11.3°
Sets 05:36:27 0° 58° (ENE) 2,663 6.4 -10.8°
